When you browse on this site, cookies collect data to enhance your experience and personalize the content and advertising you see.
Visit our Privacy Policy to learn more. By continuing to use the site, you agree to this use of cookies and data.
  • în România
  • Lista ţărilor
  • Pe 7 zile
  • Temperatura apei
  • Meteo pe hartă
  • Widget-uri
  • user-avatar
    Intrare

    Meteo pe oră la Bakhtaran

    Astăzi, 27 Februarie, Joi

    Timp Temperatura Precipitaţii Vânt Presiune Umiditate
    00:00 +5°C° 0 mm 1 m/s 637 mmHg 82%
    01:00 +5°C° 0 mm 1 m/s 637 mmHg 82%
    02:00 +4°C° 0 mm 1 m/s 637 mmHg 81%
    03:00 +4°C° 0 mm 1 m/s 637 mmHg 81%
    04:00 +4°C° 0 mm 1 m/s 637 mmHg 81%
    05:00 +3°C° 0 mm 1 m/s 637 mmHg 82%
    06:00 +2°C° 0 mm 0 m/s 637 mmHg 82%
    07:00 +4°C° 0 mm 1 m/s 638 mmHg 76%
    08:00 +5°C° 0 mm 1 m/s 638 mmHg 70%
    09:00 +6°C° 0 mm 1 m/s 639 mmHg 65%
    10:00 +8°C° 0 mm 1 m/s 639 mmHg 59%
    11:00 +9°C° 0 mm 1 m/s 639 mmHg 54%
    12:00 +11°C° 0 mm 1 m/s 639 mmHg 48%
    13:00 +11°C° 0 mm 1 m/s 639 mmHg 46%
    14:00 +12°C° 0 mm 1 m/s 639 mmHg 43%
    15:00 +13°C° 0 mm 1 m/s 638 mmHg 41%
    16:00 +12°C° 0 mm 1 m/s 638 mmHg 47%
    17:00 +11°C° 0 mm 1 m/s 638 mmHg 54%
    18:00 +9°C° 0 mm 0 m/s 637 mmHg 60%
    19:00 +8°C° 0 mm 0 m/s 637 mmHg 61%
    20:00 +7°C° 0 mm 0 m/s 637 mmHg 62%
    21:00 +7°C° 0 mm 0 m/s 637 mmHg 63%
    22:00 +6°C° 0 mm 0 m/s 636 mmHg 63%
    23:00 +6°C° 0 mm 0 m/s 636 mmHg 63%

    Mâine, 28 Februarie, Vineri

    Timp Temperatura Precipitaţii Vânt Presiune Umiditate
    00:00 +6°C° 0 mm 0 m/s 636 mmHg 63%
    01:00 +5°C° 0 mm 0 m/s 635 mmHg 62%
    02:00 +5°C° 0 mm 0 m/s 635 mmHg 62%
    03:00 +5°C° 0 mm 0 m/s 634 mmHg 62%
    04:00 +4°C° 0 mm 0 m/s 634 mmHg 61%
    05:00 +4°C° 0 mm 0 m/s 634 mmHg 60%
    06:00 +4°C° 0 mm 0 m/s 634 mmHg 60%
    07:00 +7°C° 0 mm 1 m/s 635 mmHg 54%
    08:00 +8°C° 0 mm 1 m/s 636 mmHg 48%
    09:00 +10°C° 0 mm 1 m/s 637 mmHg 42%
    10:00 +11°C° 0 mm 1 m/s 637 mmHg 38%
    11:00 +13°C° 0 mm 1 m/s 637 mmHg 35%
    12:00 +14°C° 0 mm 1 m/s 637 mmHg 31%
    13:00 +15°C° 0 mm 2 m/s 637 mmHg 31%
    14:00 +15°C° 0 mm 2 m/s 637 mmHg 30%
    15:00 +16°C° 0 mm 2 m/s 636 mmHg 30%
    16:00 +14°C° 0 mm 2 m/s 636 mmHg 36%
    17:00 +13°C° 0 mm 2 m/s 636 mmHg 41%
    18:00 +10°C° 0 mm 2 m/s 635 mmHg 47%
    19:00 +11°C° 0 mm 1 m/s 635 mmHg 50%
    20:00 +10°C° 0 mm 1 m/s 635 mmHg 52%
    21:00 +9°C° 0 mm 1 m/s 635 mmHg 55%
    22:00 +9°C° 0 mm 1 m/s 634 mmHg 57%
    23:00 +8°C° 0 mm 1 m/s 634 mmHg 59%

    Poimâine, 29 Februarie, Sâmbătă

    Timp Temperatura Precipitaţii Vânt Presiune Umiditate
    00:00 +8°C° 0 mm 1 m/s 634 mmHg 61%
    01:00 +6°C° 0 mm 0 m/s 633 mmHg 63%
    02:00 +6°C° 0 mm 0 m/s 633 mmHg 64%
    03:00 +5°C° 0 mm 0 m/s 632 mmHg 65%
    04:00 +5°C° 0 mm 0 m/s 632 mmHg 65%
    05:00 +6°C° 0 mm 1 m/s 632 mmHg 65%
    06:00 +6°C° 0 mm 1 m/s 632 mmHg 65%
    07:00 +7°C° 0 mm 1 m/s 633 mmHg 58%
    08:00 +9°C° 0 mm 1 m/s 634 mmHg 52%
    09:00 +11°C° 0 mm 1 m/s 635 mmHg 45%
    10:00 +12°C° 0 mm 2 m/s 634 mmHg 40%
    11:00 +13°C° 0 mm 2 m/s 634 mmHg 34%
    12:00 +13°C° 0 mm 3 m/s 634 mmHg 29%
    13:00 +14°C° 0 mm 3 m/s 634 mmHg 30%
    14:00 +14°C° 0 mm 4 m/s 633 mmHg 30%
    15:00 +14°C° 0 mm 5 m/s 633 mmHg 31%
    16:00 +13°C° 0 mm 4 m/s 633 mmHg 37%
    17:00 +11°C° 0 mm 3 m/s 632 mmHg 42%
    18:00 +10°C° 0 mm 2 m/s 632 mmHg 48%
    19:00 +10°C° 0 mm 2 m/s 632 mmHg 51%
    20:00 +9°C° 0 mm 2 m/s 633 mmHg 54%
    21:00 +10°C° 0 mm 1 m/s 633 mmHg 57%
    22:00 +9°C° 0 mm 1 m/s 632 mmHg 60%
    23:00 +9°C° 0 mm 1 m/s 632 mmHg 62%

    1 Martie, Duminică

    Timp Temperatura Precipitaţii Vânt Presiune Umiditate
    00:00 +8°C° 0 mm 1 m/s 632 mmHg 65%
    01:00 +8°C° 0 mm 1 m/s 631 mmHg 67%
    02:00 +7°C° 0 mm 1 m/s 631 mmHg 69%
    03:00 +7°C° 0 mm 1 m/s 631 mmHg 71%
    04:00 +6°C° 0 mm 1 m/s 630 mmHg 72%
    05:00 +6°C° 0 mm 1 m/s 630 mmHg 73%
    06:00 +6°C° 0 mm 1 m/s 630 mmHg 74%
    07:00 +5°C° 0 mm 3 m/s 631 mmHg 67%
    08:00 +7°C° 0 mm 4 m/s 632 mmHg 60%
    09:00 +8°C° 0 mm 5 m/s 632 mmHg 53%
    10:00 +9°C° 0.4 mm 7 m/s 632 mmHg 52%
    11:00 +8°C° 0.4 mm 10 m/s 632 mmHg 51%
    12:00 +8°C° 0.4 mm 12 m/s 632 mmHg 50%
    13:00 +7°C° 0.4 mm 11 m/s 631 mmHg 50%
    14:00 +7°C° 0.4 mm 11 m/s 631 mmHg 51%
    15:00 +6°C° 0.4 mm 10 m/s 631 mmHg 51%
    16:00 +5°C° 0.5 mm 9 m/s 631 mmHg 62%
    17:00 +3°C° 0.5 mm 7 m/s 631 mmHg 73%
    18:00 +2°C° 0.5 mm 5 m/s 631 mmHg 83%
    19:00 +1°C° 0.2 mm 4 m/s 631 mmHg 84%
    20:00 +2°C° 0.2 mm 3 m/s 632 mmHg 85%
    21:00 +3°C° 0.2 mm 2 m/s 632 mmHg 86%
    22:00 +3°C° 0.1 mm 1 m/s 632 mmHg 87%
    23:00 +3°C° 0.1 mm 1 m/s 632 mmHg 88%

    2 Martie, Luni

    Timp Temperatura Precipitaţii Vânt Presiune Umiditate
    00:00 +3°C° 0.1 mm 1 m/s 633 mmHg 89%
    01:00 +3°C° 0 mm 1 m/s 633 mmHg 89%
    02:00 +2°C° 0 mm 0 m/s 633 mmHg 89%
    03:00 +1°C° 0 mm 0 m/s 633 mmHg 90%
    04:00 +1°C° 0 mm 0 m/s 633 mmHg 90%
    05:00 +1°C° 0 mm 0 m/s 633 mmHg 91%
    06:00 +1°C° 0 mm 0 m/s 633 mmHg 91%
    07:00 +2°C° 0 mm 0 m/s 634 mmHg 85%
    08:00 +3°C° 0 mm 0 m/s 634 mmHg 78%
    09:00 +3°C° 0 mm 0 m/s 635 mmHg 72%
    10:00 +6°C° 0 mm 1 m/s 635 mmHg 66%
    11:00 +7°C° 0 mm 1 m/s 635 mmHg 60%
    12:00 +8°C° 0 mm 1 m/s 635 mmHg 54%
    13:00 +9°C° 0 mm 1 m/s 635 mmHg 51%
    14:00 +8°C° 0 mm 2 m/s 635 mmHg 48%
    15:00 +9°C° 0 mm 2 m/s 635 mmHg 45%
    16:00 +8°C° 0 mm 2 m/s 635 mmHg 50%
    17:00 +8°C° 0 mm 2 m/s 635 mmHg 55%
    18:00 +8°C° 0 mm 1 m/s 635 mmHg 61%
    19:00 +7°C° 0 mm 1 m/s 635 mmHg 65%
    20:00 +6°C° 0 mm 1 m/s 635 mmHg 69%
    21:00 +5°C° 0 mm 2 m/s 636 mmHg 73%
    22:00 +5°C° 0 mm 1 m/s 636 mmHg 76%
    23:00 +5°C° 0 mm 1 m/s 636 mmHg 79%

    3 Martie, Marţi

    Timp Temperatura Precipitaţii Vânt Presiune Umiditate
    00:00 +4°C° 0 mm 1 m/s 636 mmHg 82%
    01:00 +4°C° 0 mm 1 m/s 635 mmHg 83%
    02:00 +3°C° 0 mm 1 m/s 635 mmHg 84%
    03:00 +2°C° 0 mm 0 m/s 635 mmHg 85%
    04:00 +2°C° 0 mm 0 m/s 635 mmHg 86%
    05:00 +1°C° 0 mm 0 m/s 635 mmHg 86%
    06:00 +1°C° 0 mm 0 m/s 635 mmHg 86%
    07:00 +2°C° 0 mm 0 m/s 636 mmHg 78%
    08:00 +4°C° 0 mm 0 m/s 636 mmHg 69%
    09:00 +5°C° 0 mm 0 m/s 637 mmHg 61%
    10:00 +8°C° 0 mm 1 m/s 637 mmHg 53%
    11:00 +9°C° 0 mm 1 m/s 637 mmHg 45%
    12:00 +10°C° 0 mm 2 m/s 638 mmHg 36%
    13:00 +10°C° 0 mm 2 m/s 637 mmHg 35%
    14:00 +12°C° 0 mm 2 m/s 637 mmHg 33%
    15:00 +13°C° 0 mm 2 m/s 637 mmHg 32%
    16:00 +12°C° 0 mm 2 m/s 637 mmHg 38%
    17:00 +9°C° 0 mm 2 m/s 637 mmHg 44%
    18:00 +8°C° 0 mm 2 m/s 636 mmHg 50%
    19:00 +8°C° 0 mm 1 m/s 636 mmHg 55%
    20:00 +8°C° 0 mm 1 m/s 636 mmHg 60%
    21:00 +7°C° 0 mm 1 m/s 636 mmHg 64%
    22:00 +6°C° 0 mm 1 m/s 636 mmHg 66%
    23:00 +6°C° 0 mm 1 m/s 636 mmHg 68%
    Arată mai mult